Tracking 19709 objects as of 18-Jun-2019
HD Live streaming from Space Station
objects crossing your sky now

AUREOLE 2

Track AUREOLE 2 now!
10-day predictions
AUREOLE 2 is classified as:


NORAD ID: 7003
Int'l Code: 1973-107A
Perigee: 373.3 km
Apogee: 914.7 km
Inclination: 73.9 °
Period: 97.5 minutes
Semi major axis: 7014 km
RCS: 2.1042 m2 (large)
Launch date: December 26, 1973
Source: France (FR)
Launch site: PLESETSK MISSILE AND SPACE COMPLEX (PKMTR)
aabbcc
Your satellite tracking list
Your tracking list is empty




NASA's NSSDC Master Catalog

Two Line Element Set (TLE):
1  7003U 73107A   19169.21846127  .00000935  00000-0  38906-4 0  9992
2  7003  73.9259  20.6632 0385870 201.6707 156.7760 14.77624961321274
Source of the keplerian elements: AFSPC